When you browse on this site, cookies collect data to enhance your experience and personalize the content and advertising you see.
Visit our Privacy Policy to learn more. By continuing to use the site, you agree to this use of cookies and data.
  • In Deutschland
  • Länderverzeichnis
  • Für 7 Tage
  • Wassertemperatur
  • Satellitenkarten
  • Wetterkarte
  • Widgets
  • user-avatar
    Anmelden

    Stündliche Wetter Makapa

    Heute, 20 Januar, Sonntag

    Zeit Temperatur Niederschläge Wind Luftdruck Luftfeuchtigkeit
    00:00 +27°C° 0 mm 2 m/S 759 mmHg 92%
    01:00 +26°C° 0 mm 2 m/S 758 mmHg 93%
    02:00 +26°C° 0 mm 2 m/S 758 mmHg 94%
    03:00 +26°C° 0 mm 2 m/S 758 mmHg 95%
    04:00 +26°C° 0.4 mm 2 m/S 758 mmHg 95%
    05:00 +26°C° 0.4 mm 1 m/S 758 mmHg 96%
    06:00 +26°C° 0.4 mm 1 m/S 758 mmHg 97%
    07:00 +26°C° 0.2 mm 2 m/S 759 mmHg 94%
    08:00 +27°C° 0.2 mm 2 m/S 759 mmHg 91%
    09:00 +28°C° 0.2 mm 2 m/S 759 mmHg 88%
    10:00 +29°C° 1.3 mm 2 m/S 759 mmHg 84%
    11:00 +30°C° 1.3 mm 2 m/S 759 mmHg 81%
    12:00 +31°C° 1.3 mm 2 m/S 759 mmHg 78%
    13:00 +30°C° 2.1 mm 2 m/S 759 mmHg 80%
    14:00 +30°C° 2.1 mm 3 m/S 758 mmHg 82%
    15:00 +30°C° 2.1 mm 3 m/S 758 mmHg 84%
    16:00 +29°C° 1.9 mm 3 m/S 758 mmHg 86%
    17:00 +28°C° 1.9 mm 3 m/S 758 mmHg 88%
    18:00 +28°C° 1.9 mm 4 m/S 757 mmHg 91%
    19:00 +27°C° 0.1 mm 3 m/S 758 mmHg 91%
    20:00 +27°C° 0.1 mm 3 m/S 758 mmHg 92%
    21:00 +27°C° 0.1 mm 3 m/S 759 mmHg 92%
    22:00 +27°C° 0 mm 3 m/S 759 mmHg 93%
    23:00 +27°C° 0 mm 2 m/S 759 mmHg 93%

    Morgen, 21 Januar, Montag

    Zeit Temperatur Niederschläge Wind Luftdruck Luftfeuchtigkeit
    00:00 +26°C° 0 mm 2 m/S 759 mmHg 93%
    01:00 +26°C° 0.3 mm 2 m/S 759 mmHg 94%
    02:00 +26°C° 0.3 mm 2 m/S 758 mmHg 94%
    03:00 +26°C° 0.3 mm 2 m/S 758 mmHg 95%
    04:00 +26°C° 0.7 mm 2 m/S 758 mmHg 95%
    05:00 +26°C° 0.7 mm 2 m/S 758 mmHg 96%
    06:00 +25°C° 0.7 mm 2 m/S 758 mmHg 96%
    07:00 +26°C° 1.3 mm 2 m/S 759 mmHg 94%
    08:00 +27°C° 1.3 mm 2 m/S 759 mmHg 91%
    09:00 +28°C° 1.3 mm 2 m/S 760 mmHg 89%
    10:00 +29°C° 1.1 mm 2 m/S 760 mmHg 87%
    11:00 +29°C° 1.1 mm 3 m/S 760 mmHg 84%
    12:00 +30°C° 1.1 mm 3 m/S 760 mmHg 82%
    13:00 +30°C° 0.8 mm 3 m/S 759 mmHg 82%
    14:00 +30°C° 0.8 mm 3 m/S 758 mmHg 83%
    15:00 +30°C° 0.8 mm 3 m/S 757 mmHg 83%
    16:00 +29°C° 0.8 mm 3 m/S 757 mmHg 85%
    17:00 +29°C° 0.8 mm 3 m/S 757 mmHg 88%
    18:00 +28°C° 0.8 mm 3 m/S 757 mmHg 90%
    19:00 +28°C° 0.2 mm 3 m/S 758 mmHg 91%
    20:00 +27°C° 0.2 mm 3 m/S 758 mmHg 92%
    21:00 +27°C° 0.2 mm 3 m/S 759 mmHg 93%
    22:00 +27°C° 1.6 mm 3 m/S 759 mmHg 94%
    23:00 +26°C° 1.6 mm 3 m/S 759 mmHg 94%

    übermorgen, 22 Januar, Dienstag

    Zeit Temperatur Niederschläge Wind Luftdruck Luftfeuchtigkeit
    00:00 +26°C° 1.6 mm 2 m/S 760 mmHg 95%
    01:00 +26°C° 2.6 mm 2 m/S 759 mmHg 94%
    02:00 +26°C° 2.6 mm 2 m/S 759 mmHg 94%
    03:00 +26°C° 2.6 mm 2 m/S 758 mmHg 94%
    04:00 +26°C° 1.8 mm 2 m/S 758 mmHg 94%
    05:00 +26°C° 1.8 mm 2 m/S 758 mmHg 93%
    06:00 +26°C° 1.8 mm 2 m/S 758 mmHg 93%
    07:00 +27°C° 1.2 mm 2 m/S 759 mmHg 92%
    08:00 +27°C° 1.2 mm 2 m/S 760 mmHg 91%
    09:00 +28°C° 1.2 mm 2 m/S 760 mmHg 90%
    10:00 +28°C° 1.6 mm 2 m/S 760 mmHg 89%
    11:00 +29°C° 1.6 mm 3 m/S 760 mmHg 87%
    12:00 +29°C° 1.6 mm 3 m/S 760 mmHg 86%
    13:00 +29°C° 1.2 mm 3 m/S 759 mmHg 86%
    14:00 +29°C° 1.2 mm 3 m/S 758 mmHg 85%
    15:00 +29°C° 1.2 mm 3 m/S 757 mmHg 85%
    16:00 +29°C° 0.1 mm 3 m/S 757 mmHg 84%
    17:00 +29°C° 0.1 mm 3 m/S 757 mmHg 83%
    18:00 +29°C° 0.1 mm 3 m/S 757 mmHg 83%
    19:00 +28°C° 0.1 mm 3 m/S 758 mmHg 86%
    20:00 +27°C° 0.1 mm 3 m/S 758 mmHg 89%
    21:00 +27°C° 0.1 mm 3 m/S 759 mmHg 92%
    22:00 +27°C° 0 mm 3 m/S 759 mmHg 92%
    23:00 +26°C° 0 mm 2 m/S 759 mmHg 93%

    23 Januar, Mittwoch

    Zeit Temperatur Niederschläge Wind Luftdruck Luftfeuchtigkeit
    00:00 +26°C° 0 mm 2 m/S 759 mmHg 93%
    01:00 +26°C° 0.5 mm 2 m/S 759 mmHg 94%
    02:00 +26°C° 0.5 mm 2 m/S 758 mmHg 95%
    03:00 +26°C° 0.5 mm 2 m/S 758 mmHg 95%
    04:00 +26°C° 1 mm 2 m/S 758 mmHg 96%
    05:00 +25°C° 1 mm 2 m/S 758 mmHg 96%
    06:00 +25°C° 1 mm 2 m/S 758 mmHg 96%
    07:00 +26°C° 1.4 mm 1 m/S 759 mmHg 96%
    08:00 +26°C° 1.4 mm 1 m/S 760 mmHg 96%
    09:00 +26°C° 1.4 mm 1 m/S 760 mmHg 95%
    10:00 +26°C° 1.4 mm 1 m/S 760 mmHg 95%
    11:00 +24°C° 1.4 mm 0 m/S 760 mmHg 95%
    12:00 +24°C° 1.4 mm 0 m/S 760 mmHg 95%
    13:00 +27°C° 0.8 mm 1 m/S 759 mmHg 93%
    14:00 +27°C° 0.8 mm 1 m/S 758 mmHg 92%
    15:00 +27°C° 0.8 mm 1 m/S 757 mmHg 91%
    16:00 +27°C° 0.9 mm 1 m/S 757 mmHg 91%
    17:00 +27°C° 0.9 mm 2 m/S 757 mmHg 91%
    18:00 +27°C° 0.9 mm 2 m/S 757 mmHg 91%
    19:00 +27°C° 0.3 mm 2 m/S 758 mmHg 92%
    20:00 +26°C° 0.3 mm 2 m/S 758 mmHg 93%
    21:00 +26°C° 0.3 mm 2 m/S 759 mmHg 94%
    22:00 +26°C° 0.5 mm 2 m/S 759 mmHg 95%
    23:00 +26°C° 0.5 mm 2 m/S 759 mmHg 95%

    24 Januar, Donnerstag

    Zeit Temperatur Niederschläge Wind Luftdruck Luftfeuchtigkeit
    00:00 +26°C° 0.5 mm 2 m/S 759 mmHg 95%
    01:00 +25°C° 0.7 mm 2 m/S 759 mmHg 95%
    02:00 +25°C° 0.7 mm 2 m/S 758 mmHg 96%
    03:00 +25°C° 0.7 mm 2 m/S 757 mmHg 96%
    04:00 +25°C° 0.8 mm 2 m/S 757 mmHg 96%
    05:00 +25°C° 0.8 mm 1 m/S 758 mmHg 97%
    06:00 +25°C° 0.8 mm 1 m/S 758 mmHg 97%
    07:00 +25°C° 0.6 mm 1 m/S 758 mmHg 96%
    08:00 +26°C° 0.6 mm 1 m/S 759 mmHg 95%
    09:00 +26°C° 0.6 mm 1 m/S 760 mmHg 94%
    10:00 +26°C° 1 mm 1 m/S 759 mmHg 94%
    11:00 +26°C° 1 mm 1 m/S 759 mmHg 95%
    12:00 +26°C° 1 mm 1 m/S 759 mmHg 95%
    13:00 +26°C° 1.1 mm 1 m/S 759 mmHg 94%
    14:00 +26°C° 1.1 mm 2 m/S 758 mmHg 94%
    15:00 +26°C° 1.1 mm 2 m/S 757 mmHg 93%
    16:00 +26°C° 0.4 mm 2 m/S 757 mmHg 94%
    17:00 +26°C° 0.4 mm 2 m/S 757 mmHg 95%
    18:00 +26°C° 0.4 mm 2 m/S 757 mmHg 96%
    19:00 +25°C° 0 mm 2 m/S 758 mmHg 96%
    20:00 +25°C° 0 mm 2 m/S 758 mmHg 96%
    21:00 +25°C° 0 mm 2 m/S 759 mmHg 96%
    22:00 +25°C° 0 mm 2 m/S 759 mmHg 95%
    23:00 +25°C° 0 mm 2 m/S 759 mmHg 95%

    25 Januar, Freitag

    Zeit Temperatur Niederschläge Wind Luftdruck Luftfeuchtigkeit
    00:00 +25°C° 0 mm 2 m/S 759 mmHg 95%
    01:00 +25°C° 0 mm 2 m/S 759 mmHg 95%
    02:00 +25°C° 0 mm 1 m/S 758 mmHg 96%
    03:00 +25°C° 0 mm 1 m/S 758 mmHg 96%
    04:00 +25°C° 0 mm 1 m/S 758 mmHg 96%
    05:00 +25°C° 0 mm 1 m/S 758 mmHg 96%
    06:00 +25°C° 0 mm 1 m/S 758 mmHg 96%
    07:00 +25°C° 0 mm 2 m/S 758 mmHg 94%
    08:00 +26°C° 0 mm 2 m/S 759 mmHg 93%
    09:00 +27°C° 0 mm 2 m/S 759 mmHg 91%
    10:00 +28°C° 0 mm 2 m/S 759 mmHg 84%
    11:00 +29°C° 0 mm 1 m/S 759 mmHg 78%
    12:00 +31°C° 0 mm 1 m/S 759 mmHg 71%
    13:00 +31°C° 0 mm 1 m/S 758 mmHg 71%
    14:00 +31°C° 0 mm 1 m/S 758 mmHg 71%
    15:00 +31°C° 0 mm 1 m/S 757 mmHg 71%
    16:00 +30°C° 0 mm 1 m/S 757 mmHg 76%
    17:00 +29°C° 0 mm 1 m/S 756 mmHg 81%
    18:00 +28°C° 0 mm 1 m/S 756 mmHg 86%
    19:00 +28°C° 0.2 mm 1 m/S 757 mmHg 88%
    20:00 +27°C° 0.2 mm 1 m/S 758 mmHg 90%
    21:00 +27°C° 0.2 mm 1 m/S 759 mmHg 91%
    22:00 +27°C° 0.9 mm 1 m/S 759 mmHg 92%
    23:00 +26°C° 0.9 mm 2 m/S 759 mmHg 93%
    Mehr zeigen